+ View the NASA Portal
+ Center for Near-Earth Object Studies
IMPORTANT:
The SSD Announcement email list is now available. Major changes are coming in the near future, including possible hostname and/or URL changes. To be notified of such changes, subscribe to this email list.
Please visit
this page
for more details.
Don't show this message again
JPL Small-Body Database Browser
Search:
[
help
]
379966 (2012 QT35)
Classification:
Main-belt Asteroid
SPK-ID:
2379966
[
Ephemeris
|
Orbit Diagram
|
Orbital Elements
|
Mission Design
|
Physical Parameters
|
Discovery Circumstances
|
Close-Approach Data
]
[ show orbit diagram ]
Orbital Elements at Epoch 2458600.5 (2019-Apr-27.0) TDB
Reference:
JPL 17
(heliocentric ecliptic J2000)
Element
Value
Uncertainty (1-sigma)
Units
e
.03244427141850837
6.6994e-08
a
3.168884730365784
5.0516e-08
au
q
3.06607257407983
2.0303e-07
au
i
7.017459855760784
7.9684e-06
deg
node
322.4761980778547
4.7097e-05
deg
peri
225.5203866322412
0.00011907
deg
M
229.2608812668728
0.0001111
deg
t
p
2459348.774838781528
(2021-May-14.27483878)
0.00063718
TDB
period
2060.431067393248
5.64
4.9269e-05
1.349e-07
d
yr
n
.1747207201915537
4.1779e-09
deg/d
Q
3.271696886651739
5.2155e-08
au
Orbit Determination Parameters
# obs. used (total)
196
data-arc span
8490 days (23.24 yr)
first obs. used
1995-10-24
last obs. used
2019-01-21
planetary ephem.
DE431
SB-pert. ephem.
SB431-N16
condition code
0
norm. resid. RMS
.59054
source
ORB
producer
Otto Matic
solution date
2019-Jul-14 14:46:08
Additional Information
Earth MOID
= 2.07339 au
Jupiter MOID
= 1.73466 au
T_jup
= 3.190
[ show covariance matrix ]
[
Ephemeris
|
Orbit Diagram
|
Orbital Elements
|
Mission Design
|
Physical Parameters
|
Discovery Circumstances
|
Close-Approach Data
]
Physical Parameter Table
Parameter
Symbol
Value
Units
Sigma
Reference
Notes
absolute magnitude
H
15.6
n/a
MPO423399
379966 (2012 QT35)
Discovered 2004-Mar-18 by LINEAR at Socorro
Reference:
Last Updated:
2013-11-20
[ show close-approach data ]
Alternate Designations
2012 QT35
= 2004 FK48 = 2008 YM70
[
Ephemeris
|
Orbit Diagram
|
Orbital Elements
|
Mission Design
|
Physical Parameters
|
Discovery Circumstances
|
Close-Approach Data
]
2019-Dec-10 19:31 UT
(server date/time)
Site Manager:
Ryan S. Park
Webmaster
:
Alan B. Chamberlin